Year,Month,Day,Hour,Minute,Value (Times are PST for temperature in C)
2024,05,02,00,00,6.60
2024,05,02,00,01,6.60
2024,05,02,00,02,6.60
2024,05,02,00,03,6.60
2024,05,02,00,04,6.50
2024,05,02,00,05,6.40
2024,05,02,00,06,6.40
2024,05,02,00,07,6.40
2024,05,02,00,08,6.40
2024,05,02,00,09,6.40
2024,05,02,00,10,6.40
2024,05,02,00,11,6.40
2024,05,02,00,12,6.40
2024,05,02,00,13,6.40
2024,05,02,00,14,6.40
2024,05,02,00,15,6.40
2024,05,02,00,16,6.30
2024,05,02,00,17,6.30
2024,05,02,00,18,6.30
2024,05,02,00,19,6.30
2024,05,02,00,20,6.30
2024,05,02,00,21,6.30
2024,05,02,00,22,6.20
2024,05,02,00,23,6.20
2024,05,02,00,24,6.20
2024,05,02,00,25,6.20
2024,05,02,00,26,6.20
2024,05,02,00,27,6.20
2024,05,02,00,28,6.20
2024,05,02,00,29,6.20
2024,05,02,00,30,6.20
2024,05,02,00,31,6.20
2024,05,02,00,32,6.20
2024,05,02,00,33,6.20
2024,05,02,00,34,6.20
2024,05,02,00,35,6.20
2024,05,02,00,36,6.20
2024,05,02,00,37,6.20
2024,05,02,00,38,6.20
2024,05,02,00,39,6.20
2024,05,02,00,40,6.20
2024,05,02,00,41,6.20
2024,05,02,00,42,6.20
2024,05,02,00,43,6.10
2024,05,02,00,44,6.10
2024,05,02,00,45,6.10
2024,05,02,00,46,6.10
2024,05,02,00,47,6.10
2024,05,02,00,48,6.00
2024,05,02,00,49,6.00
2024,05,02,00,50,6.00
2024,05,02,00,51,6.00
2024,05,02,00,52,6.00
2024,05,02,00,53,6.00
2024,05,02,00,54,6.00
2024,05,02,00,55,6.00
2024,05,02,00,56,5.90
2024,05,02,00,57,5.90
2024,05,02,00,58,5.90
2024,05,02,00,59,5.90
2024,05,02,01,00,5.90
2024,05,02,01,01,5.90
2024,05,02,01,02,5.90
2024,05,02,01,03,5.90
2024,05,02,01,04,5.90
2024,05,02,01,05,5.90
2024,05,02,01,06,5.90
2024,05,02,01,07,5.90
2024,05,02,01,08,5.90
2024,05,02,01,09,5.80
2024,05,02,01,10,5.80
2024,05,02,01,11,5.80
2024,05,02,01,12,5.80
2024,05,02,01,13,5.80
2024,05,02,01,14,5.80
2024,05,02,01,15,5.80
2024,05,02,01,16,5.80
2024,05,02,01,17,5.80
2024,05,02,01,18,5.80
2024,05,02,01,19,5.70
2024,05,02,01,20,5.70
2024,05,02,01,21,5.70
2024,05,02,01,22,5.70
2024,05,02,01,23,5.70
2024,05,02,01,24,5.70
2024,05,02,01,25,5.70
2024,05,02,01,26,5.70
2024,05,02,01,27,5.70
2024,05,02,01,28,5.70
2024,05,02,01,29,5.70
2024,05,02,01,30,5.70
2024,05,02,01,31,5.70
2024,05,02,01,32,5.70
2024,05,02,01,33,5.70
2024,05,02,01,34,5.70
2024,05,02,01,35,5.70
2024,05,02,01,36,5.70
2024,05,02,01,37,5.70
2024,05,02,01,38,5.70
2024,05,02,01,39,5.70
2024,05,02,01,40,5.70
2024,05,02,01,41,5.70
2024,05,02,01,42,5.70
2024,05,02,01,43,5.70
2024,05,02,01,44,5.70
2024,05,02,01,45,5.70
2024,05,02,01,46,5.70
2024,05,02,01,47,5.70
2024,05,02,01,48,5.70
2024,05,02,01,49,5.70
2024,05,02,01,50,5.70
2024,05,02,01,51,5.70
2024,05,02,01,52,5.70
2024,05,02,01,53,5.70
2024,05,02,01,54,5.60
2024,05,02,01,55,5.60
2024,05,02,01,56,5.60
2024,05,02,01,57,5.60
2024,05,02,01,58,5.60
2024,05,02,01,59,5.50
2024,05,02,02,00,5.50
2024,05,02,02,01,5.50
2024,05,02,02,02,5.50
2024,05,02,02,03,5.50
2024,05,02,02,04,5.50
2024,05,02,02,05,5.40
2024,05,02,02,06,5.40
2024,05,02,02,07,5.40
2024,05,02,02,08,5.40
2024,05,02,02,09,5.40
2024,05,02,02,10,5.40
2024,05,02,02,11,5.30
2024,05,02,02,12,5.30
2024,05,02,02,13,5.30
2024,05,02,02,14,5.30
2024,05,02,02,15,5.30
2024,05,02,02,16,5.30
2024,05,02,02,17,5.30
2024,05,02,02,18,5.30
2024,05,02,02,19,5.20
2024,05,02,02,20,5.20
2024,05,02,02,21,5.20
2024,05,02,02,22,5.10
2024,05,02,02,23,5.10
2024,05,02,02,24,5.10
2024,05,02,02,25,5.10
2024,05,02,02,26,5.10
2024,05,02,02,27,5.10
2024,05,02,02,28,5.10
2024,05,02,02,29,5.10
2024,05,02,02,30,5.00
2024,05,02,02,31,4.90
2024,05,02,02,32,4.90
2024,05,02,02,33,4.90
2024,05,02,02,34,4.90
2024,05,02,02,35,4.90
2024,05,02,02,36,4.90
2024,05,02,02,37,4.90
2024,05,02,02,38,4.90
2024,05,02,02,39,4.90
2024,05,02,02,40,4.90
2024,05,02,02,41,4.90
2024,05,02,02,42,4.80
2024,05,02,02,43,4.80
2024,05,02,02,44,4.80
2024,05,02,02,45,4.80
2024,05,02,02,46,4.70
2024,05,02,02,47,4.70
2024,05,02,02,48,4.70
2024,05,02,02,49,4.70
2024,05,02,02,50,4.60
2024,05,02,02,51,4.60
2024,05,02,02,52,4.60
2024,05,02,02,53,4.60
2024,05,02,02,54,4.60
2024,05,02,02,55,4.60
2024,05,02,02,56,4.60
2024,05,02,02,57,4.60
2024,05,02,02,58,4.60
2024,05,02,02,59,4.60
2024,05,02,03,00,4.60
2024,05,02,03,01,4.60
2024,05,02,03,02,4.60
2024,05,02,03,03,4.60
2024,05,02,03,04,4.60
2024,05,02,03,05,4.60
2024,05,02,03,06,4.60
2024,05,02,03,07,4.60
2024,05,02,03,08,4.60
2024,05,02,03,09,4.60
2024,05,02,03,10,4.60
2024,05,02,03,11,4.50
2024,05,02,03,12,4.50
2024,05,02,03,13,4.50
2024,05,02,03,14,4.50
2024,05,02,03,15,4.50
2024,05,02,03,16,4.50
2024,05,02,03,17,4.50
2024,05,02,03,18,4.50
2024,05,02,03,19,4.40
2024,05,02,03,20,4.40
2024,05,02,03,21,4.40
2024,05,02,03,22,4.40
2024,05,02,03,23,4.40
2024,05,02,03,24,4.40
2024,05,02,03,25,4.40
2024,05,02,03,26,4.30
2024,05,02,03,27,4.30
2024,05,02,03,28,4.30
2024,05,02,03,29,4.30
2024,05,02,03,30,4.30
2024,05,02,03,31,4.30
2024,05,02,03,32,4.20
2024,05,02,03,33,4.20
2024,05,02,03,34,4.20
2024,05,02,03,35,4.20
2024,05,02,03,36,4.20
2024,05,02,03,37,4.20
2024,05,02,03,38,4.20
2024,05,02,03,39,4.20
2024,05,02,03,40,4.20
2024,05,02,03,41,4.20
2024,05,02,03,42,4.20
2024,05,02,03,43,4.20
2024,05,02,03,44,4.20
2024,05,02,03,45,4.20
2024,05,02,03,46,4.20
2024,05,02,03,47,4.20
2024,05,02,03,48,4.10
2024,05,02,03,49,4.10
2024,05,02,03,50,4.10
2024,05,02,03,51,4.10
2024,05,02,03,52,4.10
2024,05,02,03,53,4.10
2024,05,02,03,54,4.10
2024,05,02,03,55,4.10
2024,05,02,03,56,4.10
2024,05,02,03,57,4.10
2024,05,02,03,58,4.10
2024,05,02,03,59,4.10
2024,05,02,04,00,4.10
2024,05,02,04,01,4.10
2024,05,02,04,02,4.10
2024,05,02,04,03,4.10
2024,05,02,04,04,4.10
2024,05,02,04,05,4.10
2024,05,02,04,06,4.10
2024,05,02,04,07,4.10
2024,05,02,04,08,4.10
2024,05,02,04,09,4.10
2024,05,02,04,10,4.10
2024,05,02,04,11,4.10
2024,05,02,04,12,4.10
2024,05,02,04,13,4.10
2024,05,02,04,14,4.10
2024,05,02,04,15,4.10
2024,05,02,04,16,4.10
2024,05,02,04,17,4.10
2024,05,02,04,18,4.10
2024,05,02,04,19,4.10
2024,05,02,04,20,4.10
2024,05,02,04,21,4.10
2024,05,02,04,22,4.10
2024,05,02,04,23,4.10
2024,05,02,04,24,4.10
2024,05,02,04,25,4.10
2024,05,02,04,26,4.10
2024,05,02,04,27,4.10
2024,05,02,04,28,4.10
2024,05,02,04,29,4.10
2024,05,02,04,30,4.10
2024,05,02,04,31,4.00
2024,05,02,04,32,4.00
2024,05,02,04,33,4.00
2024,05,02,04,34,4.00
2024,05,02,04,35,4.00
2024,05,02,04,36,4.00
2024,05,02,04,37,4.00
2024,05,02,04,38,4.00
2024,05,02,04,39,4.10
2024,05,02,04,40,4.10
2024,05,02,04,41,4.10
2024,05,02,04,42,4.20
2024,05,02,04,43,4.20
2024,05,02,04,44,4.20
2024,05,02,04,45,4.20
2024,05,02,04,46,4.10
2024,05,02,04,47,4.10
2024,05,02,04,48,4.20
2024,05,02,04,49,4.20
2024,05,02,04,50,4.20
2024,05,02,04,51,4.10
2024,05,02,04,52,4.10
2024,05,02,04,53,4.10
2024,05,02,04,54,4.20
2024,05,02,04,55,4.20
2024,05,02,04,56,4.20
2024,05,02,04,57,4.20
2024,05,02,04,58,4.20
2024,05,02,04,59,4.20
2024,05,02,05,00,4.10
2024,05,02,05,01,4.10
2024,05,02,05,02,4.20
2024,05,02,05,03,4.20
2024,05,02,05,04,4.20
2024,05,02,05,05,4.20
2024,05,02,05,06,4.20
2024,05,02,05,07,4.20
2024,05,02,05,08,4.20
2024,05,02,05,09,4.20
2024,05,02,05,10,4.20
2024,05,02,05,11,4.20
2024,05,02,05,12,4.20
2024,05,02,05,13,4.20
2024,05,02,05,14,4.20
2024,05,02,05,15,4.20
2024,05,02,05,16,4.20
2024,05,02,05,17,4.20
2024,05,02,05,18,4.20
2024,05,02,05,19,4.20
2024,05,02,05,20,4.20
2024,05,02,05,21,4.20
2024,05,02,05,22,4.20
2024,05,02,05,23,4.20
2024,05,02,05,24,4.20
2024,05,02,05,25,4.20
2024,05,02,05,26,4.20
2024,05,02,05,27,4.20
2024,05,02,05,28,4.20
2024,05,02,05,29,4.20
2024,05,02,05,30,4.20
2024,05,02,05,31,4.20
2024,05,02,05,32,4.20
2024,05,02,05,33,4.20
2024,05,02,05,34,4.20
2024,05,02,05,35,4.20
2024,05,02,05,36,4.20
2024,05,02,05,37,4.20
2024,05,02,05,38,4.20
2024,05,02,05,39,4.20
2024,05,02,05,40,4.30
2024,05,02,05,41,4.30
2024,05,02,05,42,4.40
2024,05,02,05,43,4.40
2024,05,02,05,44,4.40
2024,05,02,05,45,4.40
2024,05,02,05,46,4.40
2024,05,02,05,47,4.40
2024,05,02,05,48,4.40
2024,05,02,05,49,4.40
2024,05,02,05,50,4.40
2024,05,02,05,51,4.40
2024,05,02,05,52,4.40
2024,05,02,05,53,4.30
2024,05,02,05,54,4.30
2024,05,02,05,55,4.30
2024,05,02,05,56,4.40
2024,05,02,05,57,4.40
2024,05,02,05,58,4.50
2024,05,02,05,59,4.50
2024,05,02,06,00,4.60
2024,05,02,06,01,4.60
2024,05,02,06,02,4.60
2024,05,02,06,03,4.60
2024,05,02,06,04,4.60
2024,05,02,06,05,4.60
2024,05,02,06,06,4.60
2024,05,02,06,07,4.60
2024,05,02,06,08,4.60
2024,05,02,06,09,4.60
2024,05,02,06,10,4.60
2024,05,02,06,11,4.60
2024,05,02,06,12,4.60
2024,05,02,06,13,4.50
2024,05,02,06,14,4.50
2024,05,02,06,15,4.40
2024,05,02,06,16,4.40
2024,05,02,06,17,4.30
2024,05,02,06,18,4.30
2024,05,02,06,19,4.20
2024,05,02,06,20,4.20
2024,05,02,06,21,4.20
2024,05,02,06,22,4.10
2024,05,02,06,23,4.10
2024,05,02,06,24,4.00
2024,05,02,06,25,4.00
2024,05,02,06,26,4.00
2024,05,02,06,27,4.00
2024,05,02,06,28,4.00
2024,05,02,06,29,4.00
2024,05,02,06,30,4.00
2024,05,02,06,31,4.00
2024,05,02,06,32,4.10
2024,05,02,06,33,4.10
2024,05,02,06,34,4.10
2024,05,02,06,35,4.20
2024,05,02,06,36,4.20
2024,05,02,06,37,4.20
2024,05,02,06,38,4.20
2024,05,02,06,39,4.20
2024,05,02,06,40,4.20
2024,05,02,06,41,4.20
2024,05,02,06,42,4.20
2024,05,02,06,43,4.20
2024,05,02,06,44,4.20
2024,05,02,06,45,4.20
2024,05,02,06,46,4.30
2024,05,02,06,47,4.30
2024,05,02,06,48,4.30
2024,05,02,06,49,4.40
2024,05,02,06,50,4.40
2024,05,02,06,51,4.40
2024,05,02,06,52,4.50
2024,05,02,06,53,4.60
2024,05,02,06,54,4.60
2024,05,02,06,55,4.70
2024,05,02,06,56,4.80
2024,05,02,06,57,4.90
2024,05,02,06,58,5.00
2024,05,02,06,59,5.10
2024,05,02,07,00,5.10
2024,05,02,07,01,5.10
2024,05,02,07,02,5.20
2024,05,02,07,03,5.20
2024,05,02,07,04,5.30
2024,05,02,07,05,5.30
2024,05,02,07,06,5.30
2024,05,02,07,07,5.40
2024,05,02,07,08,5.50
2024,05,02,07,09,5.60
2024,05,02,07,10,5.60
2024,05,02,07,11,5.70
2024,05,02,07,12,5.70
2024,05,02,07,13,5.80
2024,05,02,07,14,5.90
2024,05,02,07,15,6.00
2024,05,02,07,16,6.10
2024,05,02,07,17,6.10
2024,05,02,07,18,6.20
2024,05,02,07,19,6.30
2024,05,02,07,20,6.50
2024,05,02,07,21,6.60
2024,05,02,07,22,6.80
2024,05,02,07,23,6.80
2024,05,02,07,24,7.00
2024,05,02,07,25,7.00
2024,05,02,07,26,7.10
2024,05,02,07,27,7.20
2024,05,02,07,28,7.20
2024,05,02,07,29,7.30
2024,05,02,07,30,7.30
2024,05,02,07,31,7.30
2024,05,02,07,32,7.30
2024,05,02,07,33,7.30
2024,05,02,07,34,7.30
2024,05,02,07,35,7.40
2024,05,02,07,36,7.50
2024,05,02,07,37,7.60
2024,05,02,07,38,7.60
2024,05,02,07,39,7.70
2024,05,02,07,40,7.80
2024,05,02,07,41,7.90
2024,05,02,07,42,7.90
2024,05,02,07,43,8.10
2024,05,02,07,44,8.20
2024,05,02,07,45,8.30
2024,05,02,07,46,8.30
2024,05,02,07,47,8.40
2024,05,02,07,48,8.40
2024,05,02,07,49,8.50
2024,05,02,07,50,8.50
2024,05,02,07,51,8.60
2024,05,02,07,52,8.70
2024,05,02,07,53,8.70
2024,05,02,07,54,8.70
2024,05,02,07,55,8.70
2024,05,02,07,56,8.80
2024,05,02,07,57,8.80
2024,05,02,07,58,8.90
2024,05,02,07,59,8.90
2024,05,02,08,00,9.00
2024,05,02,08,01,9.00
2024,05,02,08,02,9.00
2024,05,02,08,03,9.10
2024,05,02,08,04,9.10
2024,05,02,08,05,9.20
2024,05,02,08,06,9.20
2024,05,02,08,07,9.20
2024,05,02,08,08,9.30
2024,05,02,08,09,9.40
2024,05,02,08,10,9.40
2024,05,02,08,11,9.50
2024,05,02,08,12,9.60
2024,05,02,08,13,9.60
2024,05,02,08,14,9.70
2024,05,02,08,15,9.70
2024,05,02,08,16,9.80
2024,05,02,08,17,9.80
2024,05,02,08,18,9.90
2024,05,02,08,19,9.90
2024,05,02,08,20,9.90
2024,05,02,08,21,9.90
2024,05,02,08,22,9.90
2024,05,02,08,23,10.00
2024,05,02,08,24,10.10
2024,05,02,08,25,10.20
2024,05,02,08,26,10.30
2024,05,02,08,27,10.30
2024,05,02,08,28,10.30
2024,05,02,08,29,10.30
2024,05,02,08,30,10.40
2024,05,02,08,31,10.30
2024,05,02,08,32,10.30
2024,05,02,08,33,10.30
2024,05,02,08,34,10.40
2024,05,02,08,35,10.40
2024,05,02,08,36,10.40
2024,05,02,08,37,10.30
2024,05,02,08,38,10.30
2024,05,02,08,39,10.30
2024,05,02,08,40,10.30
2024,05,02,08,41,10.40
2024,05,02,08,42,10.30
2024,05,02,08,43,10.30
2024,05,02,08,44,10.30
2024,05,02,08,45,10.30
2024,05,02,08,46,10.30
2024,05,02,08,47,10.30
2024,05,02,08,48,10.30
2024,05,02,08,49,10.40
2024,05,02,08,50,10.40
2024,05,02,08,51,10.40
2024,05,02,08,52,10.50
2024,05,02,08,53,10.60
2024,05,02,08,54,10.60
2024,05,02,08,55,10.70
2024,05,02,08,56,10.70
2024,05,02,08,57,10.70
2024,05,02,08,58,10.70
2024,05,02,08,59,10.70
2024,05,02,09,00,10.80
2024,05,02,09,01,10.90
2024,05,02,09,02,10.90
2024,05,02,09,03,10.90
2024,05,02,09,04,10.90
2024,05,02,09,05,10.90
2024,05,02,09,06,11.00
2024,05,02,09,07,11.10
2024,05,02,09,08,11.10
2024,05,02,09,09,11.20
2024,05,02,09,10,11.30
2024,05,02,09,11,11.40
2024,05,02,09,12,11.30
2024,05,02,09,13,11.20
2024,05,02,09,14,11.10
2024,05,02,09,15,11.00
2024,05,02,09,16,10.90
2024,05,02,09,17,11.00
2024,05,02,09,18,11.10
2024,05,02,09,19,11.10
2024,05,02,09,20,11.20
2024,05,02,09,21,11.30
2024,05,02,09,22,11.30
2024,05,02,09,23,11.40
2024,05,02,09,24,11.40
2024,05,02,09,25,11.40
2024,05,02,09,26,11.50
2024,05,02,09,27,11.60
2024,05,02,09,28,11.70
2024,05,02,09,29,11.70
2024,05,02,09,30,11.50
2024,05,02,09,31,11.30
2024,05,02,09,32,11.20
2024,05,02,09,33,11.10
2024,05,02,09,34,11.00
2024,05,02,09,35,10.90
2024,05,02,09,36,10.90
2024,05,02,09,37,10.90
2024,05,02,09,38,10.90
2024,05,02,09,39,11.00
2024,05,02,09,40,11.10
2024,05,02,09,41,11.10
2024,05,02,09,42,11.20
2024,05,02,09,43,11.30
2024,05,02,09,44,11.30
2024,05,02,09,45,11.40
2024,05,02,09,46,11.40
2024,05,02,09,47,11.40
2024,05,02,09,48,11.40
2024,05,02,09,49,11.50
2024,05,02,09,50,11.50
2024,05,02,09,51,11.60
2024,05,02,09,52,11.60
2024,05,02,09,53,11.60
2024,05,02,09,54,11.60
2024,05,02,09,55,11.60
2024,05,02,09,56,11.60
2024,05,02,09,57,11.60
2024,05,02,09,58,11.60
2024,05,02,09,59,11.70
2024,05,02,10,00,11.60
2024,05,02,10,01,11.60
2024,05,02,10,02,11.70
2024,05,02,10,03,11.80
2024,05,02,10,04,11.90
2024,05,02,10,05,12.00
2024,05,02,10,06,12.20
2024,05,02,10,07,12.30
2024,05,02,10,08,12.20
2024,05,02,10,09,12.10
2024,05,02,10,10,12.10
2024,05,02,10,11,12.10
2024,05,02,10,12,12.20
2024,05,02,10,13,12.30
2024,05,02,10,14,12.30
2024,05,02,10,15,12.20
2024,05,02,10,16,12.10
2024,05,02,10,17,12.00
2024,05,02,10,18,11.80
2024,05,02,10,19,11.70
2024,05,02,10,20,11.60
2024,05,02,10,21,11.60
2024,05,02,10,22,11.40
2024,05,02,10,23,11.30
2024,05,02,10,24,11.20
2024,05,02,10,25,11.20
2024,05,02,10,26,11.20
2024,05,02,10,27,11.40
2024,05,02,10,28,11.50
2024,05,02,10,29,11.70
2024,05,02,10,30,11.80
2024,05,02,10,31,12.00
2024,05,02,10,32,12.10
2024,05,02,10,33,12.10
2024,05,02,10,34,12.20
2024,05,02,10,35,12.20
2024,05,02,10,36,12.20
2024,05,02,10,37,12.30
2024,05,02,10,38,12.30
2024,05,02,10,39,12.40
2024,05,02,10,40,12.50
2024,05,02,10,41,12.50
2024,05,02,10,42,12.50
2024,05,02,10,43,12.50
2024,05,02,10,44,12.50
2024,05,02,10,45,12.50
2024,05,02,10,46,12.60
2024,05,02,10,47,12.50
2024,05,02,10,48,12.40
2024,05,02,10,49,12.10
2024,05,02,10,50,12.00
2024,05,02,10,51,11.80
2024,05,02,10,52,11.80
2024,05,02,10,53,11.70
2024,05,02,10,54,11.80
2024,05,02,10,55,11.70
2024,05,02,10,56,11.80
2024,05,02,10,57,11.80
2024,05,02,10,58,11.80
2024,05,02,10,59,11.80
2024,05,02,11,00,11.70
2024,05,02,11,01,11.70
2024,05,02,11,02,11.70
2024,05,02,11,03,11.80
2024,05,02,11,04,11.80
2024,05,02,11,05,11.80
2024,05,02,11,06,11.80
2024,05,02,11,07,11.80
2024,05,02,11,08,11.80
2024,05,02,11,09,11.80
2024,05,02,11,10,11.90
2024,05,02,11,11,12.20
2024,05,02,11,12,12.30
2024,05,02,11,13,12.40
2024,05,02,11,14,12.50
2024,05,02,11,15,12.70
2024,05,02,11,16,12.90
2024,05,02,11,17,13.10
2024,05,02,11,18,13.20
2024,05,02,11,19,13.40
2024,05,02,11,20,13.50
2024,05,02,11,21,13.60
2024,05,02,11,22,13.70
2024,05,02,11,23,13.60
2024,05,02,11,24,13.50
2024,05,02,11,25,13.20
2024,05,02,11,26,13.00
2024,05,02,11,27,12.90
2024,05,02,11,28,12.70
2024,05,02,11,29,12.60
2024,05,02,11,30,12.60
2024,05,02,11,31,12.50
2024,05,02,11,32,12.30
2024,05,02,11,33,12.30
2024,05,02,11,34,12.40
2024,05,02,11,35,12.40
2024,05,02,11,36,12.30
2024,05,02,11,37,12.30
2024,05,02,11,38,12.40
2024,05,02,11,39,12.50
2024,05,02,11,40,12.70
2024,05,02,11,41,12.70
2024,05,02,11,42,12.70
2024,05,02,11,43,12.70
2024,05,02,11,44,12.70
2024,05,02,11,45,12.80
2024,05,02,11,46,12.80
2024,05,02,11,47,12.90
2024,05,02,11,48,13.00
2024,05,02,11,49,13.10
2024,05,02,11,50,13.00
2024,05,02,11,51,12.90
2024,05,02,11,52,12.80
2024,05,02,11,53,12.90
2024,05,02,11,54,12.90
2024,05,02,11,55,12.80
2024,05,02,11,56,12.80
2024,05,02,11,57,12.80
2024,05,02,11,58,12.60
2024,05,02,11,59,12.60
2024,05,02,12,00,12.70
2024,05,02,12,01,12.90
2024,05,02,12,02,13.00
2024,05,02,12,03,13.20
2024,05,02,12,04,13.30
2024,05,02,12,05,13.50
2024,05,02,12,06,13.60
2024,05,02,12,07,13.70
2024,05,02,12,08,13.70
2024,05,02,12,09,13.80
2024,05,02,12,10,13.70
2024,05,02,12,11,13.70
2024,05,02,12,12,13.60
2024,05,02,12,13,13.40
2024,05,02,12,14,13.40
2024,05,02,12,15,13.50
2024,05,02,12,16,13.60
2024,05,02,12,17,13.70
2024,05,02,12,18,13.90
2024,05,02,12,19,14.00
2024,05,02,12,20,14.10
2024,05,02,12,21,14.20
2024,05,02,12,22,14.10
2024,05,02,12,23,14.00
2024,05,02,12,24,13.90
2024,05,02,12,25,13.90
2024,05,02,12,26,13.90
2024,05,02,12,27,14.00
2024,05,02,12,28,14.10
2024,05,02,12,29,14.00
2024,05,02,12,30,13.90
2024,05,02,12,31,13.90
2024,05,02,12,32,13.80
2024,05,02,12,33,13.80
2024,05,02,12,34,13.80
2024,05,02,12,35,13.90
2024,05,02,12,36,13.90
2024,05,02,12,37,13.80
2024,05,02,12,38,13.90
2024,05,02,12,39,14.00
2024,05,02,12,40,14.20
2024,05,02,12,41,14.30
2024,05,02,12,42,14.30
2024,05,02,12,43,14.30
2024,05,02,12,44,14.40
2024,05,02,12,45,14.50
2024,05,02,12,46,14.50
2024,05,02,12,47,14.60
2024,05,02,12,48,14.70
2024,05,02,12,49,14.70
2024,05,02,12,50,14.70
2024,05,02,12,51,14.70
2024,05,02,12,52,14.60
2024,05,02,12,53,14.50
2024,05,02,12,54,14.30
2024,05,02,12,55,14.30
2024,05,02,12,56,14.40
2024,05,02,12,57,14.40
2024,05,02,12,58,14.50
2024,05,02,12,59,14.50
2024,05,02,13,00,14.50
2024,05,02,13,01,14.40
2024,05,02,13,02,14.40
2024,05,02,13,03,14.40
2024,05,02,13,04,14.40
2024,05,02,13,05,14.50
2024,05,02,13,06,14.60
2024,05,02,13,07,14.70
2024,05,02,13,08,14.80
2024,05,02,13,09,14.70
2024,05,02,13,10,14.50
2024,05,02,13,11,14.40
2024,05,02,13,12,14.30
2024,05,02,13,13,14.30
2024,05,02,13,14,14.40
2024,05,02,13,15,14.50
2024,05,02,13,16,14.60
2024,05,02,13,17,14.80
2024,05,02,13,18,14.90
2024,05,02,13,19,14.80
2024,05,02,13,20,14.70
2024,05,02,13,21,14.60
2024,05,02,13,22,14.50
2024,05,02,13,23,14.40
2024,05,02,13,24,14.40
2024,05,02,13,25,14.50
2024,05,02,13,26,14.60
2024,05,02,13,27,14.80
2024,05,02,13,28,14.90
2024,05,02,13,29,14.90
2024,05,02,13,30,15.10
2024,05,02,13,31,15.20
2024,05,02,13,32,15.30
2024,05,02,13,33,15.50
2024,05,02,13,34,15.50
2024,05,02,13,35,15.60
2024,05,02,13,36,15.70
2024,05,02,13,37,15.80
2024,05,02,13,38,15.80
2024,05,02,13,39,15.80
2024,05,02,13,40,15.70
2024,05,02,13,41,15.50
2024,05,02,13,42,15.20
2024,05,02,13,43,15.10
2024,05,02,13,44,15.10
2024,05,02,13,45,15.10
2024,05,02,13,46,15.10
2024,05,02,13,47,15.00
2024,05,02,13,48,14.70
2024,05,02,13,49,14.60
2024,05,02,13,50,14.50
2024,05,02,13,51,14.40
2024,05,02,13,52,14.40
2024,05,02,13,53,14.50
2024,05,02,13,54,14.50
2024,05,02,13,55,14.40
2024,05,02,13,56,14.40
2024,05,02,13,57,14.40
2024,05,02,13,58,14.50
2024,05,02,13,59,14.60
2024,05,02,14,00,14.60
2024,05,02,14,01,14.70
2024,05,02,14,02,14.80
2024,05,02,14,03,14.80
2024,05,02,14,04,14.80
2024,05,02,14,05,14.80
2024,05,02,14,06,14.90
2024,05,02,14,07,15.00
2024,05,02,14,08,15.10
2024,05,02,14,09,15.10
2024,05,02,14,10,15.10
2024,05,02,14,11,15.00
2024,05,02,14,12,15.00
2024,05,02,14,13,15.00
2024,05,02,14,14,15.10
2024,05,02,14,15,15.20
2024,05,02,14,16,15.20
2024,05,02,14,17,15.20
2024,05,02,14,18,15.30
2024,05,02,14,19,15.40
2024,05,02,14,20,15.50
2024,05,02,14,21,15.50
2024,05,02,14,22,15.50
2024,05,02,14,23,15.30
2024,05,02,14,24,15.30
2024,05,02,14,25,15.20
2024,05,02,14,26,15.20
2024,05,02,14,27,15.30
2024,05,02,14,28,15.30
2024,05,02,14,29,15.40
2024,05,02,14,30,15.50
2024,05,02,14,31,15.50
2024,05,02,14,32,15.50
2024,05,02,14,33,15.50
2024,05,02,14,34,15.50
2024,05,02,14,35,15.50
2024,05,02,14,36,15.60
2024,05,02,14,37,15.50
2024,05,02,14,38,15.40
2024,05,02,14,39,15.40
2024,05,02,14,40,15.50
2024,05,02,14,41,15.40
2024,05,02,14,42,15.50
2024,05,02,14,43,15.50
2024,05,02,14,44,15.50
2024,05,02,14,45,15.50
2024,05,02,14,46,15.40
2024,05,02,14,47,15.40
2024,05,02,14,48,15.30
2024,05,02,14,49,15.30
2024,05,02,14,50,15.30
2024,05,02,14,51,15.30
2024,05,02,14,52,15.30
2024,05,02,14,53,15.30
2024,05,02,14,54,15.30
2024,05,02,14,55,15.30
2024,05,02,14,56,15.30
2024,05,02,14,57,15.30
2024,05,02,14,58,15.30
2024,05,02,14,59,15.40
2024,05,02,15,00,15.50
2024,05,02,15,01,15.60
2024,05,02,15,02,15.60
2024,05,02,15,03,15.50
2024,05,02,15,04,15.50
2024,05,02,15,05,15.50
2024,05,02,15,06,15.50
2024,05,02,15,07,15.40
2024,05,02,15,08,15.40
2024,05,02,15,09,15.40
2024,05,02,15,10,15.40
2024,05,02,15,11,15.30
2024,05,02,15,12,15.30
2024,05,02,15,13,15.30
2024,05,02,15,14,15.40
2024,05,02,15,15,15.60
2024,05,02,15,16,15.70
2024,05,02,15,17,15.90
2024,05,02,15,18,16.00
2024,05,02,15,19,16.10
2024,05,02,15,20,16.20
2024,05,02,15,21,16.30
2024,05,02,15,22,16.30
2024,05,02,15,23,16.30
2024,05,02,15,24,16.20
2024,05,02,15,25,16.10
2024,05,02,15,26,16.00
2024,05,02,15,27,15.90
2024,05,02,15,28,15.80
2024,05,02,15,29,15.90
2024,05,02,15,30,15.90
2024,05,02,15,31,15.90
2024,05,02,15,32,15.80
2024,05,02,15,33,15.90
2024,05,02,15,34,15.90
2024,05,02,15,35,15.90
2024,05,02,15,36,15.80
2024,05,02,15,37,15.80
2024,05,02,15,38,15.80
2024,05,02,15,39,15.80
2024,05,02,15,40,15.70
2024,05,02,15,41,15.70
2024,05,02,15,42,15.80
2024,05,02,15,43,15.70
2024,05,02,15,44,15.70
2024,05,02,15,45,15.70
2024,05,02,15,46,15.80
2024,05,02,15,47,15.80
2024,05,02,15,48,15.80
2024,05,02,15,49,15.60
2024,05,02,15,50,15.60
2024,05,02,15,51,15.60
2024,05,02,15,52,15.50
2024,05,02,15,53,15.40
2024,05,02,15,54,15.40
2024,05,02,15,55,15.40
2024,05,02,15,56,15.50
2024,05,02,15,57,15.70
2024,05,02,15,58,15.80
2024,05,02,15,59,15.70
2024,05,02,16,00,15.70
2024,05,02,16,01,15.80
2024,05,02,16,02,15.80
2024,05,02,16,03,15.90
2024,05,02,16,04,15.90
2024,05,02,16,05,15.90
2024,05,02,16,06,16.10
2024,05,02,16,07,16.10
2024,05,02,16,08,16.10
2024,05,02,16,09,16.10
2024,05,02,16,10,16.20
2024,05,02,16,11,16.20
2024,05,02,16,12,16.20
2024,05,02,16,13,16.30
2024,05,02,16,14,16.30
2024,05,02,16,15,16.40
2024,05,02,16,16,16.50
2024,05,02,16,17,16.60
2024,05,02,16,18,16.70
2024,05,02,16,19,16.70
2024,05,02,16,20,16.70
2024,05,02,16,21,16.70
2024,05,02,16,22,16.70
2024,05,02,16,23,16.70
2024,05,02,16,24,16.60
2024,05,02,16,25,16.50
2024,05,02,16,26,16.40
2024,05,02,16,27,16.40
2024,05,02,16,28,16.50
2024,05,02,16,29,16.60
2024,05,02,16,30,16.60
2024,05,02,16,31,16.70
2024,05,02,16,32,16.70
2024,05,02,16,33,16.80
2024,05,02,16,34,16.80
2024,05,02,16,35,16.90
2024,05,02,16,36,16.90
2024,05,02,16,37,16.90
2024,05,02,16,38,16.80
2024,05,02,16,39,16.80
2024,05,02,16,40,16.90
2024,05,02,16,41,16.90
2024,05,02,16,42,17.00
2024,05,02,16,43,17.10
2024,05,02,16,44,17.00
2024,05,02,16,45,16.90
2024,05,02,16,46,16.90
2024,05,02,16,47,16.90
2024,05,02,16,48,16.90
2024,05,02,16,49,16.90
2024,05,02,16,50,16.90
2024,05,02,16,51,16.90
2024,05,02,16,52,16.90
2024,05,02,16,53,16.90
2024,05,02,16,54,17.00
2024,05,02,16,55,17.20
2024,05,02,16,56,17.20
2024,05,02,16,57,17.30
2024,05,02,16,58,17.20
2024,05,02,16,59,17.20
2024,05,02,17,00,17.20
2024,05,02,17,01,17.20
2024,05,02,17,02,17.10
2024,05,02,17,03,17.00
2024,05,02,17,04,16.80
2024,05,02,17,05,16.70
2024,05,02,17,06,16.70
2024,05,02,17,07,16.70
2024,05,02,17,08,16.70
2024,05,02,17,09,16.70
2024,05,02,17,10,16.80
2024,05,02,17,11,16.90
2024,05,02,17,12,16.90
2024,05,02,17,13,16.90
2024,05,02,17,14,17.00
2024,05,02,17,15,17.00
2024,05,02,17,16,17.10
2024,05,02,17,17,17.20
2024,05,02,17,18,17.30
2024,05,02,17,19,17.30
2024,05,02,17,20,17.40
2024,05,02,17,21,17.50
2024,05,02,17,22,17.50
2024,05,02,17,23,17.50
2024,05,02,17,24,17.40
2024,05,02,17,25,17.40
2024,05,02,17,26,17.30
2024,05,02,17,27,17.30
2024,05,02,17,28,17.20
2024,05,02,17,29,17.30
2024,05,02,17,30,17.30
2024,05,02,17,31,17.40
2024,05,02,17,32,17.40
2024,05,02,17,33,17.50
2024,05,02,17,34,17.60
2024,05,02,17,35,17.60
2024,05,02,17,36,17.70
2024,05,02,17,37,17.70
2024,05,02,17,38,17.70
2024,05,02,17,39,17.70
2024,05,02,17,40,17.60
2024,05,02,17,41,17.50